Live-Position
3D-Globus wird geladen...
Über Starlink 5577
Group: 3 satellites
Beschreibung wird geladen...
Nächste Überflüge
Passes for default location (London). Set your location on the main map for personalized predictions.
Höhenverlauf
Loading altitude history...
Y: Altitude (km)
No altitude history available
Zweizeiliger Elementsatz
1 55751U 23028L 26133.15137758 .00002138 00000-0 18693-3 0 9994
2 55751 69.9995 82.0171 0003062 270.1456 89.9352 14.98324938175692
Epoch: 13. Mai 2026 •
Age: 9 hours
Aktueller Status
Höhe 594.6 km
Geschwindigkeit 7.56 km/s
Subsatellitenpunkt -66.65°S,
105.11°W
Startdatum 3. März 2023
Alter 3.1 years
Typ internet
Startgruppe
Falcon 9 •
Group 2-7 •
45 satellites
Starlink 5592
55741
Starlink 5594 55742
Starlink 5602 55743
Starlink 5601 55744
Starlink 5579 55746
Starlink 5539 55747
Starlink 5580 55748
Starlink 5573 55750
Starlink 5613 55752
Starlink 5617 55753
Starlink 5612 55754
Starlink 5614 55756
Starlink 5544 55757
Starlink 5072 55758
Starlink 5532 55760
Starlink 5611 55761
Starlink 5603 55762
Starlink 5593 55763
Starlink 5499 55764
Starlink 5595 55765
...and 24 more
Technische Details
Klassifizierung Payload
Masse 305.00 kg
Trockenmasse 290.00 kg
Gesamtmasse 305.00 kg
Länge 0.20 m
Durchmesser 2.80 m
Spannweite 9.00 m
Form Box + pan
Hersteller SPXS
Bus-Typ Starlink
Phasenstatus In Orbit
Besitzer/Staat SPXS/US
Most Searched
Loading...